Temperature
9 9 9 10 10 11 12 12 13 13 13 13 14 14 14 14 14 14 14 14 15 15 15 15 16 16 16 16 16 16 16 17 17 17 17 17 17 17 17 17 17 17 17
9 9 9 10 10 10 11 12 12 13 13 13 13 13 13 13 14 14 14 14 14 14 14 15 15 16 16 16 16 17 17 17 17 17 17 17 17 17 17 17 17 17 17
9 9 10 10 11 11 11 12 12 12 13 13 13 13 13 13 13 13 13 13 13 14 14 14 14 15 15 16 16 16 16 16 17 17 17 17 17 17 17 17 17 17 17
9 10 10 10 11 11 11 11 11 11 12 12 12 13 13 13 13 12 13 13 13 13 13 13 14 14 14 15 16 16 16 16 16 16 17 17 17 17 17 17 17 17 17
9 10 10 10 10 10 11 11 11 10 11 11 11 11 12 12 12 12 12 12 12 12 13 13 13 13 14 14 15 15 16 16 16 16 16 16 17 17 17 17 17 17 17
9 9 10 10 10 10 10 10 10 10 10 10 10 10 10 11 11 11 12 12 12 12 12 12 12 13 13 13 14 14 15 15 15 16 16 16 16 16 17 17 16 16 17
9 9 9 9 9 9 9 9 10 9 9 9 9 9 8 9 10 10 11 11 11 12 12 12 12 12 12 13 13 13 14 14 15 15 15 16 16 16 16 17 16 16 16
8 8 9 9 9 9 9 9 9 9 8 8 7 7 6 7 8 8 9 10 10 10 10 11 11 12 12 12 12 13 13 13 14 14 15 15 16 16 16 16 16 16 16
8 8 8 8 8 8 8 7 7 6 6 6 6 5 5 6 6 6 7 8 8 9 8 9 10 11 11 12 12 12 13 13 13 14 14 15 15 15 15 16 16 16 16
7 7 7 6 6 6 6 5 5 4 4 4 4 3 4 4 5 5 5 6 6 6 7 8 9 10 11 11 11 12 12 12 13 13 14 14 15 15 15 16 16 16 16
6 6 5 5 4 4 4 4 3 3 3 3 2 2 3 3 4 4 4 4 4 5 6 7 7 8 9 10 11 11 11 12 12 13 13 14 14 15 15 15 16 16 16
5 4 4 3 3 2 2 2 2 2 2 2 1 0 1 2 2 2 3 3 3 4 4 5 6 7 8 9 10 10 11 11 11 12 13 13 14 14 14 15 15 15 15
3 3 2 2 2 2 2 1 1 1 1 1 -0 -1 -1 0 1 1 2 2 2 3 3 4 4 5 6 7 8 9 10 10 11 11 12 12 13 13 14 14 15 15 15
3 2 2 2 2 1 1 1 1 1 0 -1 -2 -2 -2 -2 -1 -1 -0 -0 0 1 1 2 3 3 4 4 6 7 8 9 10 10 11 12 12 13 13 14 14 15 15
3 2 2 2 1 1 1 1 0 0 -0 -1 -2 -3 -3 -4 -3 -3 -3 -2 -2 -1 -1 -0 1 2 3 3 4 5 7 8 9 9 10 11 12 12 13 13 14 14 15
2 1 1 1 1 0 0 0 -0 -0 -1 -2 -3 -4 -4 -4 -5 -5 -4 -4 -4 -4 -3 -3 -2 -1 1 2 3 4 5 6 8 9 9 10 11 12 12 13 13 14 14
1 1 -0 -0 -0 -0 -0 -1 -1 -1 -2 -2 -3 -4 -5 -5 -5 -6 -6 -6 -6 -5 -5 -5 -4 -3 -2 -0 2 3 3 5 6 8 9 9 10 11 12 12 12 13 13
1 0 -1 -1 -0 -0 -0 -1 -1 -2 -2 -3 -4 -4 -5 -5 -6 -6 -7 -7 -7 -6 -6 -6 -6 -5 -5 -4 -1 1 2 4 5 6 7 8 9 10 11 11 12 12 12
1 -0 -1 -1 -1 -1 -1 -1 -2 -2 -3 -4 -4 -5 -5 -6 -6 -7 -8 -8 -8 -7 -7 -7 -7 -7 -6 -6 -5 -2 0 2 3 4 6 7 8 9 9 10 11 11 12
0 -1 -1 -1 -1 -1 -1 -1 -2 -2 -3 -4 -5 -5 -6 -6 -6 -7 -8 -8 -8 -8 -8 -7 -7 -7 -7 -6 -6 -5 -2 1 2 3 4 5 6 7 8 9 10 11 11
-0 -1 -2 -2 -2 -2 -2 -2 -3 -3 -4 -5 -5 -6 -6 -7 -7 -8 -8 -9 -9 -9 -9 -9 -8 -8 -7 -7 -7 -6 -3 -1 0 1 2 3 4 5 7 8 9 10 10
-1 -2 -2 -2 -3 -3 -3 -4 -4 -5 -5 -6 -6 -7 -7 -8 -8 -9 -9 -9 -9 -9 -9 -9 -9 -9 -8 -8 -8 -7 -6 -4 -1 1 1 2 2 3 5 7 7 8 9
-2 -2 -3 -3 -4 -4 -4 -5 -5 -5 -6 -6 -7 -8 -8 -9 -9 -9 -10 -10 -10 -10 -10 -10 -10 -10 -10 -9 -8 -8 -6 -6 -6 -3 -1 0 1 2 3 5 7 8 8
-2 -3 -3 -4 -4 -5 -5 -6 -6 -7 -7 -8 -9 -9 -9 -9 -9 -10 -10 -11 -11 -11 -11 -11 -11 -11 -11 -10 -9 -8 -8 -7 -6 -6 -4 -2 -1 1 2 4 6 7 8
-2 -3 -4 -4 -5 -5 -6 -7 -7 -8 -9 -9 -9 -9 -9 -9 -10 -11 -11 -11 -11 -11 -11 -11 -11 -11 -11 -11 -10 -9 -8 -7 -7 -6 -6 -5 -3 -0 1 3 5 6 8
-3 -4 -4 -5 -5 -6 -7 -8 -8 -9 -9 -9 -10 -10 -11 -11 -11 -11 -12 -12 -12 -12 -12 -12 -12 -11 -11 -10 -10 -10 -9 -8 -7 -7 -6 -6 -6 -3 -0 2 3 5 6
Wind_Speed
10 23 28 30 31 32 32 32 32 32 32 32 32 32 31 30 28 27 24 20 17 15 14 13 12 12 12 12 11 9 9 8 8 6 5 4 4 3 4 5 3 4 7
15 21 29 31 31 31 31 31 31 32 32 32 32 32 31 31 31 30 28 26 24 21 18 15 14 14 14 14 13 11 10 10 9 9 8 7 7 7 6 6 5 7 10
20 25 28 31 31 31 31 32 31 31 32 31 31 32 32 31 30 31 30 30 29 27 24 20 16 14 14 15 14 13 12 11 11 11 10 8 8 9 9 9 8 10 11
25 27 28 30 31 31 31 32 32 31 32 31 30 30 30 30 30 30 30 30 30 30 29 27 23 18 15 15 14 14 13 13 13 12 10 9 8 9 11 12 11 11 12
27 28 28 31 32 32 31 32 32 31 31 32 31 30 30 29 30 29 30 30 30 30 30 29 28 25 21 17 15 14 14 14 14 13 12 12 11 12 15 16 15 14 14
23 27 28 31 32 32 31 31 32 31 31 31 31 31 30 30 30 29 30 30 30 30 30 29 29 29 27 22 18 15 14 15 13 12 13 14 12 14 15 17 18 17 16
20 26 28 31 32 32 31 31 31 31 31 30 30 30 30 30 30 30 31 31 30 30 30 29 29 30 30 28 24 20 17 15 13 12 13 14 14 15 15 17 19 18 18
22 26 29 31 32 32 31 32 32 31 31 31 30 30 29 30 30 30 32 32 31 31 29 29 29 30 29 29 28 25 21 18 15 12 13 15 18 17 17 19 19 19 19
23 26 28 29 29 30 29 31 31 30 31 31 30 30 28 29 29 30 32 32 31 31 29 29 30 30 30 28 27 28 27 23 17 14 14 14 18 21 19 19 20 20 20
21 24 26 27 28 28 26 28 30 29 30 30 29 29 28 28 28 28 30 31 31 30 30 30 31 30 30 28 27 27 27 22 16 15 14 16 21 23 21 22 21 21 21
17 21 26 27 29 28 26 26 28 28 29 28 27 27 26 24 24 25 29 30 30 30 30 30 31 30 29 27 28 27 23 17 20 15 14 18 23 25 24 24 23 23 22
14 15 23 24 26 26 23 23 23 24 25 25 24 23 23 22 24 25 27 28 29 29 30 30 30 27 25 22 24 24 18 20 17 15 14 20 23 25 25 26 25 25 24
9 12 17 19 24 24 21 21 21 22 23 23 24 22 22 21 22 23 21 22 23 25 24 26 24 22 22 21 20 20 20 19 15 16 17 21 22 24 25 26 27 26 25
8 9 13 18 23 24 22 21 20 21 20 21 22 22 21 19 19 20 19 20 19 20 21 21 20 22 22 22 21 20 20 18 17 16 18 23 24 23 24 26 27 27 26
8 10 12 18 23 23 21 21 20 21 21 22 21 21 22 18 17 18 18 18 18 20 19 18 19 20 19 19 19 19 18 20 20 18 18 24 25 24 22 24 25 26 25
9 10 13 15 22 22 20 21 20 21 22 22 21 22 23 21 19 18 17 17 17 20 20 18 17 15 15 15 15 18 19 18 18 20 20 20 22 23 21 21 24 25 24
6 7 10 15 19 19 18 19 19 20 22 20 20 22 23 23 21 19 15 14 18 21 20 18 15 14 12 12 15 15 15 16 18 20 20 18 17 20 21 19 22 25 24
6 6 9 15 15 16 16 17 17 19 20 20 21 21 23 23 23 20 13 13 18 19 17 13 9 11 11 12 13 13 12 14 17 18 17 17 16 15 17 20 18 23 24
5 6 7 11 12 14 15 15 15 15 17 18 20 21 23 23 23 21 13 14 17 15 13 12 12 12 13 13 13 13 13 14 15 14 14 14 14 13 13 16 18 17 22
6 6 7 10 12 14 14 13 12 12 15 17 18 20 22 23 23 21 16 17 17 11 9 10 12 12 12 13 15 15 15 14 12 9 11 10 11 11 11 12 12 12 17
7 8 8 8 9 11 8 10 10 10 8 13 18 20 21 23 23 19 17 16 16 9 10 11 11 13 12 12 13 14 12 10 9 7 8 10 9 13 13 11 10 10 9
5 6 7 8 7 10 9 8 7 6 7 12 14 17 19 21 21 19 18 14 14 9 10 10 10 8 11 11 11 12 8 7 7 10 8 8 9 11 12 13 13 12 10
5 7 10 8 7 10 13 11 11 5 4 5 5 8 17 20 19 18 20 16 14 9 9 10 8 9 11 11 9 7 6 6 13 7 7 7 10 11 11 11 12 13 14
5 6 7 7 7 10 13 9 10 10 8 8 7 7 15 18 18 18 20 17 15 12 8 9 9 9 10 11 10 7 8 10 8 8 7 6 9 12 12 12 13 12 13
5 6 6 7 6 8 11 9 9 9 8 8 9 9 9 14 17 18 19 16 16 12 9 8 9 9 8 10 10 10 10 9 10 9 14 13 12 7 9 12 11 10 12
5 6 7 7 7 7 8 8 9 10 11 13 13 10 10 8 11 18 19 16 17 13 10 9 8 11 10 11 11 10 10 8 9 9 11 15 15 12 12 10 10 9 7
Wind_Direction
331 341 6 13 16 19 19 21 21 20 20 19 17 14 12 10 8 6 2 356 351 346 340 336 335 333 329 323 318 317 314 307 303 298 286 273 267 235 179 163 184 191 167
337 358 12 15 15 17 18 19 20 20 19 19 18 16 13 12 11 8 6 3 358 351 344 335 330 326 322 318 313 307 299 292 287 287 286 277 266 253 218 186 201 190 172
18 13 12 15 14 14 16 17 17 18 17 17 17 15 14 13 12 11 9 6 3 358 351 342 330 321 315 311 307 302 294 284 278 275 277 277 272 262 237 205 198 186 178
28 18 13 16 15 14 15 16 14 15 15 14 15 15 14 12 11 10 9 6 3 360 356 351 342 326 312 303 300 299 294 284 276 270 265 262 264 268 250 219 205 193 183
29 18 11 17 15 14 14 15 13 13 13 12 11 11 11 11 10 9 7 4 2 359 356 353 350 343 328 311 299 295 294 287 278 267 257 255 255 267 263 230 212 202 189
28 20 14 17 15 14 14 14 12 12 12 10 9 8 9 9 8 7 6 2 1 358 355 354 353 352 346 331 312 298 293 290 286 266 252 252 252 261 262 227 212 205 197
25 22 17 16 15 13 13 13 11 11 10 9 8 8 8 8 6 6 5 0 359 356 354 354 354 351 349 344 332 314 298 294 288 264 250 249 248 256 253 229 216 210 203
27 23 18 16 14 12 11 11 10 10 9 8 8 7 9 8 5 4 2 357 356 354 353 353 351 349 346 344 344 336 320 307 291 277 257 250 249 251 247 232 218 212 208
29 25 18 16 14 11 10 10 9 8 7 8 7 7 9 7 4 3 359 355 354 353 354 352 350 347 345 343 342 342 338 324 301 280 271 258 254 249 241 229 216 210 208
28 24 17 15 12 7 6 9 8 7 6 7 7 8 9 7 5 3 357 354 353 352 353 351 349 347 345 342 341 339 337 331 315 288 272 263 259 254 241 227 216 209 206
24 20 17 16 12 6 5 5 6 5 4 4 6 9 10 7 3 2 355 353 352 351 352 348 348 348 346 342 339 338 338 333 322 305 281 270 267 260 248 232 218 211 207
20 17 17 17 11 5 4 359 6 3 360 358 1 11 10 7 3 0 354 353 352 351 350 346 346 348 347 340 337 338 334 330 326 319 302 287 277 269 258 240 223 214 208
20 14 10 16 11 6 3 1 9 2 359 357 358 9 10 7 3 359 355 350 350 352 348 343 343 344 342 338 334 332 332 330 324 321 313 305 296 283 266 248 230 218 211
19 6 6 20 14 6 6 1 6 2 358 356 356 6 8 6 3 358 353 346 349 349 343 341 338 336 337 334 332 331 331 327 319 317 317 318 312 301 276 252 235 223 216
23 15 12 21 15 6 7 3 0 360 357 352 354 2 5 4 360 354 349 343 343 345 340 338 336 335 334 332 331 330 327 322 316 317 316 314 317 315 293 254 236 226 219
29 18 8 18 14 6 8 3 358 357 354 351 352 358 1 1 357 353 344 341 344 342 335 331 327 332 328 328 327 327 321 318 317 318 314 313 314 317 312 269 241 232 226
32 16 11 14 11 4 5 1 357 355 352 350 351 356 358 357 355 350 342 345 346 341 336 332 328 330 327 327 325 323 319 319 317 312 309 307 309 313 312 298 258 242 235
34 25 18 10 5 2 1 355 352 353 352 349 351 355 355 354 353 346 339 347 346 342 340 335 336 332 328 325 324 320 318 316 309 305 302 301 303 303 307 307 289 255 243
38 26 15 3 358 355 353 350 348 350 350 349 352 353 352 352 350 344 335 345 347 344 340 340 340 334 330 328 323 320 318 308 300 301 304 303 301 298 301 306 306 279 252
32 20 11 356 351 351 351 351 350 352 352 351 351 351 352 350 347 344 346 345 347 344 340 339 336 333 331 328 326 319 309 298 292 297 309 317 318 324 315 310 311 300 268
24 9 1 352 348 356 356 357 352 349 344 346 348 348 349 348 346 344 350 345 347 341 335 335 334 335 335 333 327 322 305 287 289 326 326 319 338 350 340 335 327 313 292
9 354 359 357 351 357 355 346 339 327 323 333 333 339 344 344 343 347 345 341 342 337 332 333 333 336 331 334 328 325 319 313 338 319 311 319 346 340 335 340 340 341 321
1 359 6 353 348 352 352 349 345 327 313 326 323 333 337 337 336 339 337 334 335 332 329 327 328 334 327 324 323 318 318 321 324 302 316 331 336 328 331 329 333 334 331
357 357 356 347 342 349 353 351 349 346 335 329 326 320 325 329 328 334 332 331 330 326 322 323 335 319 318 318 316 301 305 308 305 309 312 316 323 326 322 325 322 319 321
358 354 348 339 337 346 348 344 340 334 326 324 325 321 320 324 325 329 327 330 327 321 316 312 314 313 311 306 306 306 304 302 290 296 305 314 318 312 317 314 307 304 309
354 350 341 337 335 340 342 338 333 330 328 330 331 327 328 323 324 326 325 328 325 320 315 312 309 309 305 300 300 301 301 299 301 300 299 307 310 312 312 304 297 292 296
Height
1609 1606 1604 1600 1596 1592 1589 1585 1582 1579 1577 1574 1571 1569 1567 1565 1563 1561 1558 1556 1555 1553 1552 1550 1549 1548 1547 1546 1545 1544 1544 1543 1543 1543 1543 1543 1542 1542 1542 1542 1543 1543 1543
1612 1608 1604 1600 1597 1593 1590 1586 1583 1580 1577 1574 1571 1569 1566 1564 1562 1559 1557 1555 1553 1552 1550 1548 1547 1545 1544 1544 1543 1542 1541 1541 1541 1541 1541 1541 1541 1541 1541 1541 1542 1543 1543
1612 1609 1606 1602 1598 1594 1591 1587 1584 1581 1577 1574 1572 1569 1566 1563 1561 1558 1556 1553 1551 1549 1547 1546 1544 1543 1541 1540 1540 1539 1538 1538 1538 1538 1538 1538 1539 1539 1539 1539 1540 1541 1542
1614 1611 1607 1603 1599 1595 1591 1588 1584 1581 1577 1574 1571 1568 1566 1563 1560 1557 1555 1552 1549 1547 1545 1543 1541 1540 1539 1537 1536 1535 1535 1534 1534 1534 1535 1535 1536 1536 1536 1537 1538 1539 1540
1614 1611 1607 1603 1599 1595 1591 1588 1584 1580 1576 1573 1570 1567 1564 1561 1558 1556 1553 1550 1547 1545 1542 1540 1538 1536 1535 1534 1533 1532 1531 1530 1530 1530 1531 1532 1532 1533 1533 1534 1535 1536 1537
1614 1611 1607 1603 1599 1595 1591 1587 1583 1579 1575 1572 1568 1565 1561 1558 1556 1553 1550 1547 1544 1542 1540 1537 1535 1533 1531 1530 1529 1528 1527 1526 1525 1525 1526 1528 1528 1529 1530 1531 1532 1533 1534
1614 1610 1607 1603 1598 1594 1590 1586 1582 1577 1573 1569 1565 1562 1558 1555 1552 1549 1546 1544 1541 1538 1535 1533 1531 1529 1527 1525 1524 1523 1523 1522 1521 1521 1521 1523 1524 1524 1526 1527 1528 1529 1531
1613 1610 1606 1601 1597 1593 1589 1584 1580 1576 1571 1567 1562 1558 1554 1551 1548 1545 1542 1539 1536 1533 1530 1528 1526 1525 1523 1521 1519 1518 1517 1516 1516 1516 1516 1517 1519 1519 1521 1523 1524 1525 1527
1613 1609 1604 1600 1595 1591 1586 1582 1577 1573 1568 1564 1559 1555 1550 1547 1544 1541 1538 1534 1531 1528 1524 1522 1520 1519 1517 1516 1515 1513 1511 1510 1510 1510 1510 1511 1513 1514 1515 1517 1519 1521 1523
1611 1607 1602 1598 1593 1588 1584 1579 1575 1571 1566 1562 1557 1552 1548 1544 1541 1537 1534 1530 1527 1523 1519 1516 1514 1512 1510 1510 1509 1508 1507 1506 1505 1504 1504 1505 1507 1508 1509 1511 1514 1516 1518
1610 1605 1601 1596 1591 1587 1582 1578 1574 1569 1565 1560 1554 1550 1546 1542 1538 1533 1530 1526 1522 1519 1515 1512 1509 1506 1504 1503 1502 1502 1501 1500 1499 1498 1498 1499 1500 1501 1503 1505 1507 1510 1513
1608 1604 1599 1594 1589 1584 1580 1575 1571 1567 1563 1558 1552 1547 1543 1539 1535 1531 1526 1522 1518 1514 1511 1507 1503 1500 1498 1496 1495 1494 1494 1493 1493 1493 1492 1493 1493 1494 1497 1499 1501 1504 1507
1609 1604 1598 1593 1588 1583 1578 1573 1568 1564 1560 1555 1550 1545 1540 1536 1532 1527 1522 1518 1513 1509 1505 1502 1498 1495 1492 1490 1488 1487 1486 1486 1486 1486 1486 1486 1486 1487 1488 1491 1494 1497 1500
1608 1603 1597 1592 1587 1582 1577 1572 1567 1562 1557 1553 1548 1543 1537 1532 1528 1524 1520 1515 1510 1505 1501 1497 1494 1490 1487 1485 1482 1480 1479 1478 1479 1478 1479 1479 1479 1480 1481 1484 1487 1490 1494
1607 1603 1598 1592 1586 1581 1576 1571 1566 1561 1556 1551 1547 1541 1536 1531 1525 1521 1517 1512 1508 1503 1498 1493 1489 1485 1483 1479 1476 1474 1472 1471 1471 1471 1471 1472 1473 1474 1475 1477 1480 1483 1486
1608 1603 1597 1591 1585 1580 1574 1569 1564 1559 1554 1550 1545 1540 1534 1529 1524 1519 1514 1509 1505 1500 1496 1491 1486 1481 1477 1474 1471 1468 1466 1464 1463 1463 1464 1464 1466 1467 1469 1471 1474 1477 1480
1607 1602 1595 1589 1584 1578 1573 1568 1563 1558 1553 1548 1543 1537 1532 1527 1522 1517 1512 1507 1502 1497 1492 1487 1483 1478 1473 1469 1465 1462 1459 1457 1457 1457 1457 1458 1458 1460 1462 1464 1467 1470 1474
1605 1599 1593 1588 1582 1577 1572 1567 1562 1557 1551 1546 1541 1535 1529 1524 1519 1514 1510 1505 1500 1494 1489 1484 1480 1474 1469 1464 1459 1456 1453 1451 1451 1451 1450 1451 1451 1452 1454 1456 1459 1463 1467
1603 1597 1591 1586 1580 1575 1570 1564 1560 1555 1549 1544 1538 1532 1526 1521 1516 1511 1507 1502 1496 1491 1486 1481 1476 1472 1467 1461 1456 1451 1448 1446 1445 1445 1444 1444 1444 1445 1446 1449 1452 1455 1460
1601 1595 1590 1584 1578 1573 1567 1562 1557 1552 1547 1541 1535 1529 1523 1518 1513 1508 1503 1498 1492 1487 1482 1478 1473 1469 1465 1459 1453 1447 1443 1441 1440 1439 1439 1438 1438 1438 1439 1442 1445 1448 1452
1599 1593 1588 1582 1576 1570 1564 1558 1553 1548 1543 1538 1532 1527 1521 1515 1510 1505 1500 1494 1489 1485 1480 1475 1470 1464 1460 1456 1450 1444 1438 1437 1434 1433 1433 1433 1432 1432 1433 1435 1439 1441 1445
1597 1592 1586 1581 1575 1569 1563 1558 1552 1546 1541 1535 1530 1524 1518 1513 1507 1502 1496 1491 1486 1481 1477 1472 1468 1462 1457 1455 1452 1445 1439 1432 1429 1427 1427 1427 1426 1427 1427 1429 1432 1435 1439
1595 1590 1584 1579 1573 1567 1561 1555 1549 1543 1537 1531 1525 1520 1515 1510 1504 1499 1493 1488 1483 1478 1474 1469 1465 1461 1455 1453 1453 1451 1445 1438 1428 1420 1421 1420 1420 1421 1421 1423 1426 1430 1433
1593 1588 1583 1577 1571 1565 1559 1552 1545 1539 1533 1527 1522 1516 1512 1507 1501 1495 1490 1484 1479 1475 1470 1466 1462 1458 1454 1450 1448 1447 1445 1441 1436 1424 1415 1414 1415 1415 1415 1417 1419 1424 1427
1591 1586 1581 1575 1569 1563 1556 1550 1543 1537 1531 1525 1519 1513 1507 1502 1497 1491 1486 1480 1475 1471 1466 1462 1458 1454 1451 1448 1445 1442 1440 1437 1434 1429 1419 1410 1409 1409 1410 1410 1412 1417 1421
1590 1585 1579 1573 1567 1560 1553 1547 1541 1534 1528 1521 1515 1508 1502 1497 1492 1487 1482 1476 1471 1466 1461 1457 1453 1449 1446 1443 1441 1438 1436 1433 1430 1427 1422 1414 1407 1404 1404 1405 1407 1411 1415